Preview of NWS' New Version of Forecast
This preview is not operational and should not be used for support decisions.

Regional Weather Roundup (RWR)

Issued by National Weather Service (NWS)

                            
000
ASUS45 KCYS 200810
RWRWY 

WYOMING REGIONAL WEATHER ROUNDUP
NATIONAL WEATHER SERVICE CHEYENNE WY
200 AM MDT TUE AUG 20 2019

NOTE:  "FAIR" INDICATES FEW OR NO CLOUDS BELOW 12,000 FEET
WITH NO SIGNIFICANT WEATHER AND/OR OBSTRUCTIONS TO VISIBILITY.

WYZ001-200900-
...YELLOWSTONE NATIONAL PARK...
  
CITY           SKY/WX    TMP DP  RH WIND       PRES   REMARKS
LK YELLOWSTONE   N/A     46  36  68 CALM      30.33S                  
W YELLOWSTONE  NOT AVBL                                               

$$
WYZ002>013-054>058-071-098>099-200900-
...NORTHERN WYOMING...
  
CITY           SKY/WX    TMP DP  RH WIND       PRES   REMARKS
JACKSON        PTCLDY    48  35  60 NE3       30.23R                  
CODY           CLEAR     70  42  36 N3        30.12S                  
GREYBULL       PTCLDY    71  40  32 SE3       29.98R                  
WORLAND        CLEAR     69  40  34 E3        30.01R                  
SHERIDAN       CLEAR     58  48  69 W7        30.05R                  
BUFFALO        PTCLDY    67  39  35 W9        30.11S                  
GILLETTE       PTCLDY    61  49  64 W3        30.06S                  
HULETT         FAIR      68  48  49 CALM      30.08S                  
NEWCASTLE      FAIR      64  50  59 N10       30.04F                  

$$
WYZ014>020-022>026-101>103-200900-
...CENTRAL WYOMING...
  
CITY           SKY/WX    TMP DP  RH WIND       PRES   REMARKS
BIG PINEY      PTCLDY    48  26  42 SW6       30.27R                  
PINEDALE       CLEAR     45  32  61 W7        30.28R                  
DUBOIS         FAIR      54  28  37 W12       30.27R                  
LANDER         PTCLDY    74  23  15 SW6       30.11R                  
RIVERTON       PTCLDY    64  32  30 W6        30.11R                  
CASPER         PTCLDY    58  33  39 SW6       30.10R                  
DOUGLAS        PTCLDY    58  35  42 N3        30.06F                  

$$
WYZ021-027>030-104>119-200900-
...SOUTHERN WYOMING...
  
CITY           SKY/WX    TMP DP  RH WIND       PRES   REMARKS
EVANSTON       PTCLDY    60  26  27 SE7       30.27R                  
KEMMERER       MOCLDY    57  25  28 NW3       30.28S                  
FORT BRIDGER   NOT AVBL                                               
ROCK SPRINGS   CLEAR     62  20  19 SW6       30.24S                  
DIXON          FAIR      50  29  44 SE7       30.27R                  
RAWLINS        CLEAR     63  24  22 CALM      30.24R                  
SARATOGA       FAIR      57  27  30 SE5       30.27S                  
LARAMIE        CLEAR     55  38  52 SW7       30.27S                  
CHEYENNE       PTCLDY    66  54  65 W9        30.18F                  
TORRINGTON     MOCLDY    70  55  59 E8        30.02F                  
PINE BLUFFS    FAIR      61  55  82 W8        30.12S                  

$$
  

000
ASUS45 KCYS 200810
RWRWY 

WYOMING REGIONAL WEATHER ROUNDUP
NATIONAL WEATHER SERVICE CHEYENNE WY
200 AM MDT TUE AUG 20 2019

NOTE:  "FAIR" INDICATES FEW OR NO CLOUDS BELOW 12,000 FEET
WITH NO SIGNIFICANT WEATHER AND/OR OBSTRUCTIONS TO VISIBILITY.

WYZ001-200900-
YELLOWSTONE NATIONAL PARK
  
CITY           SKY/WX    TMP DP  RH WIND       PRES   REMARKS
LK YELLOWSTONE   N/A     46  36  68 CALM      30.33S                  
W YELLOWSTONE  NOT AVBL                                               

$$
WYZ002>013-054>058-071-098>099-200900-
NORTHERN WYOMING
  
CITY           SKY/WX    TMP DP  RH WIND       PRES   REMARKS
JACKSON        FAIR      48  35  60 NE3       30.23R                  
CODY           FAIR      70  42  36 N3        30.12S                  
GREYBULL       FAIR      71  40  32 SE3       29.98R                  
WORLAND        FAIR      69  40  34 E3        30.01R                  
SHERIDAN       FAIR      58  48  69 W7        30.05R                  
BUFFALO        FAIR      67  39  35 W9        30.11S                  
GILLETTE       FAIR      61  49  64 W3        30.06S                  
HULETT         FAIR      68  48  49 CALM      30.08                   
NEWCASTLE      FAIR      64  50  59 N10       30.04                   

$$
WYZ014>020-022>026-101>103-200900-
CENTRAL WYOMING
  
CITY           SKY/WX    TMP DP  RH WIND       PRES   REMARKS
BIG PINEY      FAIR      48  26  42 SW6       30.27R                  
PINEDALE       FAIR      45  32  61 W7        30.28                   
DUBOIS         FAIR      54  28  37 W12       30.27                   
LANDER         FAIR      74  23  15 SW6       30.11R                  
RIVERTON       FAIR      64  32  30 W6        30.11R                  
CASPER         FAIR      58  33  39 SW6       30.10R                  
DOUGLAS        FAIR      58  35  42 N3        30.06F                  

$$
WYZ021-027>030-104>119-200900-
SOUTHERN WYOMING
  
CITY           SKY/WX    TMP DP  RH WIND       PRES   REMARKS
EVANSTON       FAIR      60  26  27 SE7       30.27R                  
KEMMERER       FAIR      57  25  28 NW3       30.28                   
ROCK SPRINGS   FAIR      62  20  19 SW6       30.24S                  
DIXON          FAIR      50  29  44 SE7       30.27R                  
RAWLINS        FAIR      63  24  22 CALM      30.24R                  
SARATOGA       FAIR      57  27  30 SE5       30.27S                  
LARAMIE        FAIR      55  38  52 SW7       30.27S                  
CHEYENNE       FAIR      66  54  65 W9        30.18F                  
TORRINGTON     FAIR      70  55  59 E8        30.02F                  
PINE BLUFFS    FAIR      61  55  82 W8        30.12S                  

$$